Time,TemperatureF,DewpointF,PressureIn,WindDirection,WindDirectionDegrees,WindSpeedMPH,WindSpeedGustMPH,Humidity,HourlyPrecipIn,Conditions,Clouds,dailyrainin,SoftwareType,DateUTC
2013-08-05 00:00:00,59.3,54.0,29.87,WNW,303,0.0,1.0,83,0.00,,,0.00,weatherlink.com 1.10,2013-08-05 04:00:00,
2013-08-05 00:16:00,59.1,54.0,29.87,NW,306,0.0,2.0,82,0.00,,,0.00,weatherlink.com 1.10,2013-08-05 04:16:00,
2013-08-05 00:31:00,58.8,53.0,29.87,WNW,296,0.0,1.0,82,0.00,,,0.00,weatherlink.com 1.10,2013-08-05 04:31:00,
2013-08-05 00:46:00,58.7,53.0,29.87,NW,306,1.0,2.0,82,0.00,,,0.00,weatherlink.com 1.10,2013-08-05 04:46:00,
2013-08-05 01:01:00,58.6,53.0,29.87,NW,318,1.0,3.0,82,0.00,,,0.00,weatherlink.com 1.10,2013-08-05 05:01:00,
2013-08-05 01:16:00,59.1,53.0,29.87,NW,304,3.0,3.0,81,0.00,,,0.00,weatherlink.com 1.10,2013-08-05 05:16:00,
2013-08-05 01:31:00,59.2,53.0,29.87,WNW,303,2.0,6.0,80,0.00,,,0.00,weatherlink.com 1.10,2013-08-05 05:31:00,
2013-08-05 01:46:00,59.3,52.0,29.87,NW,310,2.0,5.0,78,0.00,,,0.00,weatherlink.com 1.10,2013-08-05 05:46:00,
2013-08-05 02:01:00,58.9,52.0,29.87,NW,309,0.0,3.0,79,0.00,,,0.00,weatherlink.com 1.10,2013-08-05 06:01:00,
2013-08-05 02:15:00,58.5,52.0,29.86,NW,312,2.0,3.0,80,0.00,,,0.00,weatherlink.com 1.10,2013-08-05 06:15:00,
2013-08-05 02:31:00,58.3,52.0,29.86,NW,306,2.0,4.0,80,0.00,,,0.00,weatherlink.com 1.10,2013-08-05 06:31:00,
2013-08-05 02:47:00,58.0,52.0,29.86,NW,306,1.0,3.0,80,0.00,,,0.00,weatherlink.com 1.10,2013-08-05 06:47:00,
2013-08-05 03:01:00,57.5,52.0,29.86,NW,310,0.0,2.0,82,0.00,,,0.00,weatherlink.com 1.10,2013-08-05 07:01:00,
2013-08-05 03:16:00,56.9,52.0,29.87,NW,314,1.0,3.0,83,0.00,,,0.00,weatherlink.com 1.10,2013-08-05 07:16:00,
2013-08-05 04:16:00,55.0,51.0,29.88,NW,305,0.0,0.0,87,0.00,,,0.00,weatherlink.com 1.10,2013-08-05 08:16:00,
2013-08-05 04:31:00,54.5,51.0,29.88,NW,305,0.0,0.0,89,0.00,,,0.00,weatherlink.com 1.10,2013-08-05 08:31:00,
2013-08-05 04:46:00,54.0,51.0,29.89,NW,305,0.0,1.0,90,0.00,,,0.00,weatherlink.com 1.10,2013-08-05 08:46:00,
2013-08-05 05:01:00,53.7,51.0,29.89,NW,305,0.0,1.0,91,0.00,,,0.00,weatherlink.com 1.10,2013-08-05 09:01:00,
2013-08-05 05:16:00,53.5,51.0,29.90,NW,305,0.0,0.0,92,0.00,,,0.00,weatherlink.com 1.10,2013-08-05 09:16:00,
2013-08-05 05:31:00,52.7,51.0,29.91,NW,305,0.0,0.0,94,0.00,,,0.00,weatherlink.com 1.10,2013-08-05 09:31:00,
2013-08-05 05:46:00,52.0,50.0,29.91,NW,305,0.0,0.0,94,0.00,,,0.00,weatherlink.com 1.10,2013-08-05 09:46:00,
2013-08-05 06:01:00,52.0,51.0,29.92,NW,305,0.0,0.0,96,0.00,,,0.00,weatherlink.com 1.10,2013-08-05 10:01:00,
2013-08-05 06:16:00,52.6,51.0,29.92,NW,305,0.0,0.0,94,0.00,,,0.00,weatherlink.com 1.10,2013-08-05 10:16:00,
2013-08-05 06:31:00,53.7,52.0,29.92,NW,305,0.0,0.0,93,0.00,,,0.00,weatherlink.com 1.10,2013-08-05 10:31:00,
2013-08-05 06:47:00,55.8,53.0,29.92,NW,305,0.0,0.0,89,0.00,,,0.00,weatherlink.com 1.10,2013-08-05 10:47:00,
2013-08-05 07:02:00,57.0,53.0,29.93,NW,313,2.0,3.0,86,0.00,,,0.00,weatherlink.com 1.10,2013-08-05 11:02:00,
2013-08-05 07:17:00,58.2,53.0,29.93,NW,306,2.0,3.0,84,0.00,,,0.00,weatherlink.com 1.10,2013-08-05 11:17:00,
2013-08-05 07:31:00,59.3,54.0,29.93,NW,305,1.0,4.0,81,0.00,,,0.00,weatherlink.com 1.10,2013-08-05 11:31:00,
2013-08-05 08:01:00,61.1,53.0,29.94,NW,316,4.0,7.0,74,0.00,,,0.00,weatherlink.com 1.10,2013-08-05 12:01:00,
2013-08-05 08:16:00,61.6,52.0,29.93,NW,324,5.0,7.0,71,0.00,,,0.00,weatherlink.com 1.10,2013-08-05 12:16:00,
2013-08-05 08:32:00,61.9,52.0,29.93,WNW,300,1.0,14.0,71,0.00,,,0.00,weatherlink.com 1.10,2013-08-05 12:32:00,
2013-08-05 08:47:00,62.0,51.0,29.93,WNW,295,1.0,14.0,67,0.00,,,0.00,weatherlink.com 1.10,2013-08-05 12:47:00,
2013-08-05 09:02:00,62.3,51.0,29.93,NW,322,2.0,10.0,66,0.00,,,0.00,weatherlink.com 1.10,2013-08-05 13:02:00,
2013-08-05 09:17:00,62.5,48.0,29.93,WNW,300,8.0,13.0,59,0.00,,,0.00,weatherlink.com 1.10,2013-08-05 13:17:00,
2013-08-05 09:32:00,62.5,47.0,29.93,NNW,330,5.0,10.0,58,0.00,,,0.00,weatherlink.com 1.10,2013-08-05 13:32:00,
2013-08-05 10:02:00,63.2,44.0,29.93,WNW,300,6.0,10.0,49,0.00,,,0.00,weatherlink.com 1.10,2013-08-05 14:02:00,
2013-08-05 10:17:00,63.5,45.0,29.94,NW,314,4.0,12.0,52,0.00,,,0.00,weatherlink.com 1.10,2013-08-05 14:17:00,
2013-08-05 10:32:00,64.2,46.0,29.93,WNW,291,1.0,7.0,51,0.00,,,0.00,weatherlink.com 1.10,2013-08-05 14:32:00,
2013-08-05 10:47:00,64.9,47.0,29.93,WNW,293,3.0,7.0,52,0.00,,,0.00,weatherlink.com 1.10,2013-08-05 14:47:00,
2013-08-05 11:17:00,65.1,46.0,29.94,West,275,4.0,10.0,50,0.00,,,0.00,weatherlink.com 1.10,2013-08-05 15:17:00,
2013-08-05 11:47:00,66.9,48.0,29.94,WNW,284,2.0,9.0,51,0.00,,,0.00,weatherlink.com 1.10,2013-08-05 15:47:00,
2013-08-05 12:02:00,66.8,45.0,29.93,NW,306,4.0,12.0,46,0.00,,,0.00,weatherlink.com 1.10,2013-08-05 16:02:00,
2013-08-05 12:17:00,66.8,46.0,29.93,WNW,303,2.0,10.0,47,0.00,,,0.00,weatherlink.com 1.10,2013-08-05 16:17:00,
2013-08-05 12:32:00,67.3,46.0,29.93,NW,324,4.0,10.0,46,0.00,,,0.00,weatherlink.com 1.10,2013-08-05 16:32:00,
2013-08-05 12:47:00,67.8,45.0,29.93,WNW,296,3.0,9.0,44,0.00,,,0.00,weatherlink.com 1.10,2013-08-05 16:47:00,
2013-08-05 13:02:00,68.0,46.0,29.92,NNW,333,3.0,9.0,45,0.00,,,0.00,weatherlink.com 1.10,2013-08-05 17:02:00,
2013-08-05 13:17:00,68.3,45.0,29.92,NW,315,3.0,8.0,44,0.00,,,0.00,weatherlink.com 1.10,2013-08-05 17:17:00,
2013-08-05 13:32:00,69.0,45.0,29.92,NW,306,2.0,10.0,43,0.00,,,0.00,weatherlink.com 1.10,2013-08-05 17:32:00,
2013-08-05 13:47:00,69.1,44.0,29.92,NW,314,4.0,8.0,41,0.00,,,0.00,weatherlink.com 1.10,2013-08-05 17:47:00,
2013-08-05 14:02:00,69.5,45.0,29.92,WNW,302,3.0,8.0,41,0.00,,,0.00,weatherlink.com 1.10,2013-08-05 18:02:00,
2013-08-05 14:17:00,70.2,47.0,29.92,NW,306,2.0,6.0,44,0.00,,,0.00,weatherlink.com 1.10,2013-08-05 18:17:00,
2013-08-05 14:32:00,70.4,44.0,29.92,WNW,284,0.0,6.0,39,0.00,,,0.00,weatherlink.com 1.10,2013-08-05 18:32:00,
2013-08-05 14:48:00,71.0,46.0,29.92,WNW,298,2.0,11.0,41,0.00,,,0.00,weatherlink.com 1.10,2013-08-05 18:48:00,
2013-08-05 15:18:00,71.4,45.0,29.92,WNW,291,1.0,8.0,39,0.00,,,0.00,weatherlink.com 1.10,2013-08-05 19:18:00,
2013-08-05 15:48:00,72.0,43.0,29.92,WNW,292,0.0,9.0,35,0.00,,,0.00,weatherlink.com 1.10,2013-08-05 19:48:00,
2013-08-05 16:03:00,72.4,44.0,29.92,NW,321,2.0,7.0,36,0.00,,,0.00,weatherlink.com 1.10,2013-08-05 20:03:00,
2013-08-05 16:33:00,72.4,42.0,29.92,NNW,344,1.0,5.0,34,0.00,,,0.00,weatherlink.com 1.10,2013-08-05 20:33:00,
2013-08-05 16:48:00,72.4,41.0,29.93,WNW,293,1.0,8.0,32,0.00,,,0.00,weatherlink.com 1.10,2013-08-05 20:48:00,
2013-08-05 17:03:00,72.5,41.0,29.92,NW,306,1.0,10.0,32,0.00,,,0.00,weatherlink.com 1.10,2013-08-05 21:03:00,
2013-08-05 17:18:00,72.7,40.0,29.93,WNW,300,1.0,5.0,31,0.00,,,0.00,weatherlink.com 1.10,2013-08-05 21:18:00,
2013-08-05 17:33:00,72.6,42.0,29.93,West,281,3.0,7.0,33,0.00,,,0.00,weatherlink.com 1.10,2013-08-05 21:33:00,
2013-08-05 17:48:00,72.6,43.0,29.93,WNW,293,0.0,4.0,34,0.00,,,0.00,weatherlink.com 1.10,2013-08-05 21:48:00,
2013-08-05 18:03:00,72.5,41.0,29.94,WNW,290,0.0,4.0,32,0.00,,,0.00,weatherlink.com 1.10,2013-08-05 22:03:00,
2013-08-05 18:18:00,72.3,41.0,29.94,WNW,284,2.0,6.0,32,0.00,,,0.00,weatherlink.com 1.10,2013-08-05 22:18:00,
2013-08-05 18:33:00,71.5,42.0,29.95,NW,312,0.0,5.0,35,0.00,,,0.00,weatherlink.com 1.10,2013-08-05 22:33:00,
2013-08-05 18:48:00,70.6,42.0,29.95,WNW,288,2.0,5.0,35,0.00,,,0.00,weatherlink.com 1.10,2013-08-05 22:48:00,
2013-08-05 19:03:00,69.8,44.0,29.96,WNW,298,0.0,2.0,39,0.00,,,0.00,weatherlink.com 1.10,2013-08-05 23:03:00,
2013-08-05 19:18:00,69.1,43.0,29.96,WNW,296,2.0,3.0,39,0.00,,,0.00,weatherlink.com 1.10,2013-08-05 23:18:00,
2013-08-05 19:33:00,68.2,44.0,29.96,WNW,295,0.0,2.0,42,0.00,,,0.00,weatherlink.com 1.10,2013-08-05 23:33:00,
2013-08-05 19:48:00,67.3,43.0,29.97,WNW,295,0.0,0.0,42,0.00,,,0.00,weatherlink.com 1.10,2013-08-05 23:48:00,
2013-08-05 20:03:00,66.0,47.0,29.98,WNW,295,0.0,0.0,50,0.00,,,0.00,weatherlink.com 1.10,2013-08-06 00:03:00,
2013-08-05 20:33:00,61.6,48.0,29.99,WNW,295,0.0,0.0,62,0.00,,,0.00,weatherlink.com 1.10,2013-08-06 00:33:00,
2013-08-05 21:03:00,59.5,48.0,30.00,WNW,295,0.0,0.0,67,0.00,,,0.00,weatherlink.com 1.10,2013-08-06 01:03:00,
2013-08-05 21:18:00,58.7,48.0,30.01,WNW,295,0.0,0.0,67,0.00,,,0.00,weatherlink.com 1.10,2013-08-06 01:18:00,
2013-08-05 21:33:00,58.1,47.0,30.02,WNW,295,0.0,0.0,66,0.00,,,0.00,weatherlink.com 1.10,2013-08-06 01:33:00,
2013-08-05 21:48:00,58.0,46.0,30.02,WNW,300,0.0,0.0,65,0.00,,,0.00,weatherlink.com 1.10,2013-08-06 01:48:00,
2013-08-05 22:03:00,58.3,46.0,30.02,WNW,300,0.0,0.0,65,0.00,,,0.00,weatherlink.com 1.10,2013-08-06 02:03:00,
2013-08-05 22:18:00,57.5,47.0,30.02,WNW,300,0.0,0.0,67,0.00,,,0.00,weatherlink.com 1.10,2013-08-06 02:18:00,
2013-08-05 22:33:00,58.3,49.0,30.02,WNW,300,0.0,0.0,70,0.00,,,0.00,weatherlink.com 1.10,2013-08-06 02:33:00,
2013-08-05 22:48:00,57.4,47.0,30.02,WNW,300,0.0,0.0,69,0.00,,,0.00,weatherlink.com 1.10,2013-08-06 02:48:00,
2013-08-05 23:03:00,56.8,48.0,30.02,WNW,300,0.0,0.0,72,0.00,,,0.00,weatherlink.com 1.10,2013-08-06 03:03:00,
2013-08-05 23:18:00,55.9,47.0,30.02,WNW,300,0.0,0.0,72,0.00,,,0.00,weatherlink.com 1.10,2013-08-06 03:18:00,
2013-08-05 23:48:00,55.6,47.0,30.03,WNW,300,0.0,0.0,74,0.00,,,0.00,weatherlink.com 1.10,2013-08-06 03:48:00,